Weather History for Mandan, ND

Change the Weather History Date:

Saturday, September 1, 2012

  Actual Average (KBIS) Record (KBIS)
Temperature  
Mean Temperature 82 °F 65 °F  
Max Temperature 98 °F 79 °F 103 °F (1983)
Min Temperature 66 °F 51 °F 32 °F (1974)
Degree Days  
Heating Degree Days 0 3  
Month to date heating degree days 3  
Since 1 July heating degree days 58  
Cooling Degree Days 17 3  
Month to date cooling degree days 3  
Year to date cooling degree days 484  
Growing Degree Days 32 (Base 50)    
Moisture  
Dew Point 48 °F    
Average Humidity 37    
Maximum Humidity 56    
Minimum Humidity 15    
Precipitation  
Precipitation 0.00 in 0.07 in 1.15 in (2008)
Month to date precipitation 0.07  
Year to date precipitation 13.88  
Snow  
Snow 0.00 in 0.00 in 0.00 in (2002)
Month to date snowfall 0.0  
Since 1 July snowfall 0.0  
Since 1 September snowfall 0.0  
Snow Depth -    
Sea Level Pressure  
Sea Level Pressure 29.85 in    
Wind  
Wind Speed 17 mph (SE)    
Max Wind Speed 28 mph    
Max Gust Speed 39 mph    
Visibility 10 miles    
Events Rain , Thunderstorm    
T = Trace of Precipitation, MM = Missing Value Source: NWS Daily Summary

Daily Weather History Graph

Daily Weather History Graph

Search for Another Location

Airport:

Trip Planner

Search our weather history database for the weather conditions in past years. The results will help you decide how hot, cold, wet, or windy it might be!

Date:

Astronomy

Sep. 01, 2012 Rise Set
Actual Time 7:03 AM CDT 8:21 PM CDT
Civil Twilight 6:32 AM CDT 8:53 PM CDT
Nautical Twilight 5:54 AM CDT 9:30 PM CDT
Astronomical Twilight 5:14 AM CDT 10:11 PM CDT
Moon 8:29 PM CDT (9/1) 8:21 AM CDT (9/1)
Length of Visible Light 14h 20m
Length of Day
13h 17m
Full, 99% of the Moon is Illuminated
Sep 1
Full
Sep 8
Last Quarter
Sep 15
New
Sep 22
First Quarter
Sep 29
Full

Hourly Weather History & Observations

Time (CDT) Temp. Heat Index Dew Point Humidity Pressure Visibility Wind Dir Wind Speed Gust Speed Precip Events Conditions
12:15 AM 66.2 °F - 50.0 °F 56% 30.03 in 10.0 mi ESE 13.8 mph 21.9 mph N/A Rain Light Rain
12:35 AM 68.0 °F - 48.2 °F 49% 30.01 in 10.0 mi SE 25.3 mph 31.1 mph N/A   Overcast
12:55 AM 68.0 °F - 46.4 °F 46% 30.02 in 10.0 mi SE 18.4 mph - N/A   Mostly Cloudy
1:15 AM 68.0 °F - 48.2 °F 49% 30.02 in 10.0 mi ESE 13.8 mph - N/A   Mostly Cloudy
1:35 AM 68.0 °F - 46.4 °F 46% 30.02 in 10.0 mi ESE 16.1 mph 24.2 mph N/A   Mostly Cloudy
1:55 AM 68.0 °F - 46.4 °F 46% 30.02 in 10.0 mi ESE 17.3 mph - N/A   Scattered Clouds
2:15 AM 68.0 °F - 46.4 °F 46% 30.03 in 10.0 mi SSE 13.8 mph 29.9 mph N/A   Scattered Clouds
2:35 AM 68.0 °F - 46.4 °F 46% 29.99 in 10.0 mi ESE 20.7 mph 26.5 mph N/A   Mostly Cloudy
2:55 AM 68.0 °F - 46.4 °F 46% 30.01 in 10.0 mi SE 15.0 mph 20.7 mph N/A   Mostly Cloudy
3:15 AM 68.0 °F - 46.4 °F 46% 30.01 in 10.0 mi ESE 13.8 mph - N/A   Scattered Clouds
3:35 AM 68.0 °F - 46.4 °F 46% 29.98 in 10.0 mi ESE 20.7 mph 25.3 mph N/A   Mostly Cloudy
3:55 AM 68.0 °F - 46.4 °F 46% 29.98 in 10.0 mi ESE 18.4 mph 25.3 mph N/A   Mostly Cloudy
4:15 AM 68.0 °F - 46.4 °F 46% 29.97 in 10.0 mi ESE 19.6 mph 27.6 mph N/A   Mostly Cloudy
4:35 AM 68.0 °F - 46.4 °F 46% 29.97 in 10.0 mi East 17.3 mph 24.2 mph N/A   Overcast
4:55 AM 66.2 °F - 46.4 °F 49% 29.96 in 10.0 mi ESE 13.8 mph 19.6 mph N/A   Mostly Cloudy
5:15 AM 66.2 °F - 46.4 °F 49% 29.95 in 10.0 mi East 15.0 mph 21.9 mph N/A   Mostly Cloudy
5:35 AM 68.0 °F - 46.4 °F 46% 29.94 in 10.0 mi ESE 17.3 mph 25.3 mph N/A   Overcast
5:55 AM 68.0 °F - 46.4 °F 46% 29.94 in 10.0 mi ESE 20.7 mph 27.6 mph N/A   Overcast
6:15 AM 66.2 °F - 46.4 °F 49% 29.94 in 10.0 mi ESE 16.1 mph 20.7 mph N/A   Overcast
6:35 AM 66.2 °F - 46.4 °F 49% 29.93 in 10.0 mi SE 16.1 mph 23.0 mph N/A   Overcast
6:55 AM 66.2 °F - 46.4 °F 49% 29.93 in 10.0 mi SE 18.4 mph 25.3 mph N/A   Mostly Cloudy
7:15 AM 66.2 °F - 48.2 °F 52% 29.93 in 10.0 mi SE 20.7 mph 26.5 mph N/A   Partly Cloudy
7:35 AM 66.2 °F - 48.2 °F 52% 29.92 in 10.0 mi SE 19.6 mph 29.9 mph N/A   Clear
7:55 AM 66.2 °F - 48.2 °F 52% 29.92 in 10.0 mi SE 16.1 mph 26.5 mph N/A   Clear
8:15 AM 66.2 °F - 48.2 °F 52% 29.93 in 10.0 mi SE 16.1 mph 23.0 mph N/A   Clear
8:35 AM 66.2 °F - 50.0 °F 56% 29.92 in 10.0 mi SE 18.4 mph 24.2 mph N/A   Clear
8:55 AM 66.2 °F - 50.0 °F 56% 29.91 in 10.0 mi SE 20.7 mph - N/A   Clear
9:15 AM 66.2 °F - 50.0 °F 56% 29.91 in 10.0 mi SE 18.4 mph - N/A   Clear
9:35 AM 68.0 °F - 50.0 °F 52% 29.91 in 10.0 mi SE 18.4 mph - N/A   Clear
10:15 AM 69.8 °F - 51.8 °F 53% 29.89 in 10.0 mi SE 18.4 mph - N/A   Clear
10:35 AM 71.6 °F - 51.8 °F 50% 29.89 in 10.0 mi SE 16.1 mph 21.9 mph N/A   Clear
10:55 AM 71.6 °F - 53.6 °F 53% 29.88 in 10.0 mi SE 13.8 mph - N/A   Clear
11:15 AM 75.2 °F - 51.8 °F 44% 29.88 in 10.0 mi SSE 15.0 mph 19.6 mph N/A   Clear
11:35 AM 77.0 °F - 51.8 °F 41% 29.88 in 10.0 mi SSE 12.7 mph 17.3 mph N/A   Clear
11:55 AM 77.0 °F - 53.6 °F 44% 29.87 in 10.0 mi SSE 12.7 mph 18.4 mph N/A   Clear
12:15 PM 80.6 °F 80.3 °F 53.6 °F 39% 29.86 in 10.0 mi SE 16.1 mph 21.9 mph N/A   Clear
12:35 PM 80.6 °F 80.3 °F 53.6 °F 39% 29.85 in 10.0 mi SE 13.8 mph 20.7 mph N/A   Clear
12:55 PM 84.2 °F 82.8 °F 53.6 °F 35% 29.84 in 10.0 mi SE 17.3 mph 25.3 mph N/A   Clear
1:15 PM 86.0 °F - 51.8 °F 31% 29.83 in 10.0 mi SSE 18.4 mph 26.5 mph N/A   Clear
1:35 PM 89.6 °F - 50.0 °F 26% 29.82 in 10.0 mi South 19.6 mph 27.6 mph N/A   Clear
1:55 PM 91.4 °F - 50.0 °F 24% 29.81 in 10.0 mi SSE 23.0 mph 28.8 mph N/A   Clear
2:15 PM 91.4 °F - 50.0 °F 24% 29.80 in 10.0 mi South 23.0 mph 31.1 mph N/A   Clear
2:35 PM 93.2 °F - 48.2 °F 21% 29.79 in 10.0 mi SSE 20.7 mph 29.9 mph N/A   Clear
2:55 PM 95.0 °F - 48.2 °F 20% 29.78 in 10.0 mi South 21.9 mph 36.8 mph N/A   Clear
3:15 PM 96.8 °F - 46.4 °F 18% 29.76 in 10.0 mi SSE 25.3 mph 36.8 mph N/A   Clear
3:35 PM 98.6 °F - 44.6 °F 16% 29.75 in 10.0 mi SSE 24.2 mph 38.0 mph N/A   Clear
3:55 PM 98.6 °F - 44.6 °F 16% 29.74 in 10.0 mi South 25.3 mph 38.0 mph N/A   Clear
4:15 PM 98.6 °F - 42.8 °F 15% 29.73 in 10.0 mi South 24.2 mph 39.1 mph N/A   Clear
4:35 PM 98.6 °F - 42.8 °F 15% 29.73 in 10.0 mi SSE 27.6 mph 35.7 mph N/A   Clear
4:55 PM 98.6 °F - 42.8 °F 15% 29.72 in 10.0 mi SSE 26.5 mph 38.0 mph N/A   Clear
5:15 PM 98.6 °F - 44.6 °F 16% 29.71 in 10.0 mi SSE 26.5 mph 35.7 mph N/A   Clear
5:35 PM 95.0 °F - 44.6 °F 18% 29.71 in 10.0 mi SSE 24.2 mph 34.5 mph N/A   Clear
6:15 PM 95.0 °F - 44.6 °F 18% 29.69 in 10.0 mi SSE 25.3 mph 32.2 mph N/A   Clear
6:35 PM 95.0 °F - 44.6 °F 18% 29.68 in 10.0 mi SSE 23.0 mph 35.7 mph N/A   Clear
6:55 PM 96.8 °F - 44.6 °F 17% 29.68 in 10.0 mi SSE 23.0 mph 33.4 mph N/A   Clear
7:15 PM 95.0 °F - 44.6 °F 18% 29.68 in 10.0 mi South 23.0 mph 31.1 mph N/A   Clear
7:35 PM 93.2 °F - 42.8 °F 17% 29.68 in 10.0 mi SSE 16.1 mph 26.5 mph N/A   Clear
7:55 PM 93.2 °F - 42.8 °F 17% 29.68 in 10.0 mi SSE 17.3 mph 25.3 mph N/A   Clear
8:15 PM 91.4 °F - 46.4 °F 21% 29.72 in 9.0 mi SW 15.0 mph 35.7 mph N/A Thunderstorm Partly Cloudy
8:35 PM 89.6 °F - 46.4 °F 22% 29.75 in 10.0 mi South 15.0 mph 21.9 mph N/A   Mostly Cloudy
8:55 PM 84.2 °F 82.8 °F 53.6 °F 35% 29.73 in 9.0 mi East 6.9 mph - N/A Rain Light Rain
9:15 PM 84.2 °F 82.8 °F 53.6 °F 35% 29.72 in 10.0 mi ESE 8.1 mph - N/A   Partly Cloudy
9:35 PM 82.4 °F 81.4 °F 53.6 °F 37% 29.73 in 10.0 mi ESE 8.1 mph - N/A   Mostly Cloudy
9:55 PM 80.6 °F 80.3 °F 53.6 °F 39% 29.73 in 10.0 mi SE 9.2 mph - N/A   Mostly Cloudy
10:15 PM 82.4 °F - 50.0 °F 32% 29.73 in 10.0 mi SE 6.9 mph - N/A   Mostly Cloudy
10:35 PM 80.6 °F - 50.0 °F 34% 29.73 in 10.0 mi SE 5.8 mph - N/A   Mostly Cloudy
10:55 PM 80.6 °F - 50.0 °F 34% 29.74 in 10.0 mi West 6.9 mph - N/A   Clear
11:15 PM 80.6 °F - 50.0 °F 34% 29.74 in 10.0 mi South 4.6 mph - N/A   Clear
11:35 PM 77.0 °F - 53.6 °F 44% 29.73 in 10.0 mi SSW 4.6 mph - N/A   Partly Cloudy
11:55 PM 78.8 °F - 50.0 °F 36% 29.74 in 10.0 mi South 3.5 mph - N/A   Clear